GFSSGP_sfc_wetblb_024.txt.gz
Wetbulb
65.22 62.01 59.86 57.47 46.80 45.60 41.54 47.10 51.33 51.83 54.91 57.29 55.95 55.32 54.54 54.42 54.67 50.63 62.55 67.68 68.97 69.65 71.49 72.87 73.99 73.54 73.23 72.73 72.26 71.70 71.18 70.42 70.08 69.16 67.88 67.43 67.12 66.90 66.53 66.32 65.97 66.18 66.32 66.16 66.37 66.64 66.85 66.88 66.72
60.82 59.58 55.27 53.64 44.32 40.87 43.38 48.63 49.09 55.06 58.18 60.46 59.13 56.32 57.93 57.43 62.43 63.97 65.00 69.15 68.97 70.34 70.99 71.37 73.89 73.66 73.29 72.74 72.10 71.61 71.23 70.78 70.55 69.56 68.12 67.78 67.51 67.19 66.87 66.63 66.53 66.66 67.04 66.83 66.77 67.12 67.49 68.23 68.40
62.40 60.45 49.24 47.41 45.27 42.31 44.26 50.61 54.37 58.03 59.85 59.54 57.87 60.05 58.11 58.92 63.63 64.29 67.03 69.27 69.19 69.47 70.63 70.87 73.79 73.52 73.46 72.97 72.33 71.61 71.29 71.21 70.63 69.51 69.14 68.77 68.29 68.47 67.99 67.21 67.39 67.50 67.99 67.78 68.02 68.37 68.48 68.53 69.34
57.57 54.96 50.00 44.75 45.03 49.41 50.92 54.32 57.33 57.97 59.27 59.70 59.25 56.70 58.83 62.13 62.96 66.23 69.58 69.24 68.40 68.96 69.84 72.28 73.42 73.27 73.29 73.09 72.45 71.71 71.63 71.61 71.19 70.52 69.99 69.57 68.89 69.35 68.94 68.18 68.21 68.15 68.33 68.86 69.35 69.48 69.61 69.42 69.25
56.50 50.30 42.63 42.44 45.89 50.69 54.19 55.70 55.87 56.51 58.07 58.88 59.19 56.61 57.71 63.44 65.28 69.66 69.16 69.21 67.55 67.69 68.20 71.61 73.52 73.42 73.27 73.22 72.70 71.96 71.81 71.61 71.66 71.51 70.86 70.23 70.47 70.11 69.24 68.90 68.69 68.59 68.64 69.27 69.80 70.19 70.54 70.35 70.10
49.04 48.21 41.51 41.11 45.63 51.16 53.23 55.53 56.14 57.87 58.59 58.62 58.06 57.28 56.67 62.12 66.41 69.02 69.70 68.43 68.63 67.09 67.09 70.41 73.37 73.34 72.92 73.05 72.57 72.20 71.81 71.66 71.76 71.83 71.66 71.41 71.29 70.92 70.26 69.80 69.35 69.39 69.77 70.21 70.53 70.82 70.28 70.04 69.50
47.13 43.34 41.33 43.97 46.36 49.19 53.16 56.45 54.11 55.99 55.23 55.20 57.36 54.91 56.94 60.20 62.73 68.36 69.19 68.93 68.57 67.80 66.61 69.15 70.30 72.01 73.34 73.02 72.45 72.15 71.76 71.58 71.63 71.58 71.55 71.73 71.61 71.38 71.24 71.02 70.50 70.13 70.50 70.99 71.04 70.43 69.82 69.30 69.18
49.38 44.98 41.31 43.77 45.41 46.71 54.25 54.76 54.87 54.99 55.01 58.92 58.92 54.61 53.70 59.04 61.63 61.35 62.14 63.75 67.31 67.25 67.36 68.13 68.41 69.74 70.33 70.62 72.97 72.37 72.07 71.68 71.48 71.62 71.67 71.67 71.87 71.65 71.45 70.99 71.29 70.77 71.09 70.87 70.72 69.99 68.67 67.99 67.87
54.04 41.79 39.20 43.55 46.31 48.70 53.57 53.98 58.21 58.66 57.08 57.57 59.09 57.86 59.76 61.66 62.43 59.19 57.78 57.40 63.05 67.24 67.71 68.35 68.48 67.71 69.52 69.40 71.07 72.39 72.77 72.24 71.75 71.67 71.67 70.80 68.84 69.01 69.28 70.57 70.86 71.28 71.35 71.06 70.23 69.38 68.43 67.75 67.24
52.21 44.59 43.16 48.39 50.13 48.32 50.91 52.55 53.87 54.49 54.97 55.82 58.08 60.20 60.49 60.92 58.31 57.42 56.97 56.48 58.60 65.05 67.46 68.32 68.56 67.80 67.82 68.66 68.72 69.97 69.65 69.45 69.43 68.79 68.61 68.65 67.22 66.46 68.77 69.30 71.25 71.64 71.93 71.04 70.18 69.35 68.45 67.22 62.64
52.64 49.38 50.88 50.66 52.56 52.47 50.99 52.02 54.25 52.97 51.86 55.01 56.03 57.54 58.96 59.22 58.36 57.02 57.83 57.35 57.16 59.23 67.55 68.57 68.55 68.59 67.62 66.73 67.66 69.39 68.86 68.67 68.71 68.20 67.88 68.01 67.32 65.81 66.03 64.78 66.93 69.13 70.88 67.18 68.22 66.23 64.91 62.67 62.24
49.89 54.10 55.66 55.92 56.51 54.05 51.46 53.26 52.35 53.15 53.40 57.04 57.44 57.88 58.10 57.93 57.36 56.86 57.19 57.23 57.02 57.02 65.68 68.71 68.74 68.34 68.04 67.27 67.09 68.17 67.99 68.24 68.32 68.28 67.22 67.13 65.25 63.97 63.58 63.62 63.88 64.49 64.70 63.50 62.50 61.97 61.94 61.90 62.47
46.10 51.61 53.48 54.54 54.70 54.73 55.04 53.05 52.60 52.99 55.85 57.86 57.81 57.23 56.22 56.09 56.07 56.35 57.33 57.23 57.35 56.45 58.68 67.68 68.61 68.27 68.21 67.33 67.67 67.57 67.46 67.68 68.29 67.88 67.02 66.86 65.26 64.38 64.12 63.51 62.76 63.44 62.46 62.57 61.82 61.69 62.08 61.90 62.04
46.26 47.41 50.41 52.45 51.74 52.77 51.94 52.67 53.84 54.90 57.53 57.21 56.12 55.22 55.32 54.83 55.76 56.03 56.46 56.76 56.59 57.38 56.72 65.58 68.01 68.50 68.45 67.68 67.14 67.73 67.65 67.16 67.32 67.24 66.54 66.66 66.11 65.01 63.78 62.87 62.12 63.07 63.03 62.50 61.89 61.90 61.43 61.63 62.06
46.60 42.72 45.68 47.23 49.20 50.67 52.71 49.14 50.12 54.83 56.07 54.91 54.87 55.41 55.23 55.32 56.14 56.32 57.03 56.84 57.49 56.93 58.29 63.56 67.87 68.67 68.18 67.80 66.68 67.71 67.69 67.42 66.72 66.37 66.51 66.77 66.34 64.82 64.05 63.16 63.73 62.54 61.98 61.55 61.88 61.48 61.31 60.76 60.80
42.73 42.52 39.66 45.93 47.79 48.72 50.41 45.16 52.21 54.48 53.64 53.25 54.34 55.23 56.11 55.86 56.85 57.85 57.20 56.09 56.18 57.49 57.46 59.76 67.39 68.59 68.33 67.86 66.78 67.77 67.76 67.40 66.84 66.81 67.09 67.34 66.63 65.20 63.90 63.12 62.48 62.97 62.72 62.18 61.44 61.01 61.19 60.22 60.19
39.94 37.25 38.94 42.32 47.37 47.73 47.63 45.40 51.37 54.18 53.70 52.16 52.96 54.22 55.44 56.30 57.09 55.72 57.28 57.64 58.24 57.88 57.43 57.79 64.58 66.30 67.40 67.67 66.58 67.40 67.52 67.47 66.61 66.63 67.34 67.08 66.48 65.73 64.53 63.34 62.78 62.59 62.48 61.58 61.23 60.66 59.98 59.02 59.02
35.12 37.50 40.29 40.16 45.08 47.18 46.08 45.70 49.44 51.54 51.87 51.89 52.87 53.86 54.62 55.23 55.99 56.83 57.66 58.03 57.28 56.57 58.05 58.89 65.21 65.28 66.12 66.21 66.53 66.26 65.55 64.66 64.75 65.51 66.33 66.30 66.22 66.08 63.80 63.18 62.71 62.57 61.89 61.37 60.01 60.47 59.69 59.50 59.02
41.46 40.41 39.73 42.72 46.29 45.23 45.32 45.87 48.04 50.59 51.21 50.26 51.30 52.47 53.71 54.49 56.12 56.41 55.67 57.45 58.15 57.47 58.17 60.51 65.46 65.84 67.55 66.70 66.92 65.92 63.56 63.67 63.02 63.58 64.93 65.24 65.13 65.24 63.49 62.91 62.49 62.20 61.49 61.04 59.94 59.38 59.42 58.96 59.99
39.42 37.96 37.97 41.75 45.22 45.22 44.81 44.55 48.13 50.07 50.74 51.62 52.06 52.34 52.42 52.83 53.28 55.39 56.04 56.83 57.16 58.78 61.41 61.72 65.62 67.58 68.09 67.84 67.40 65.09 64.39 62.84 63.18 63.71 65.09 64.95 64.56 64.44 63.61 62.35 61.38 61.37 60.70 60.06 59.08 58.78 56.69 57.25 58.42
38.76 37.10 38.11 38.44 42.56 43.84 42.05 40.76 43.55 47.41 48.71 49.79 50.81 52.45 52.00 52.39 53.23 54.36 55.37 55.00 56.04 60.13 62.66 65.22 66.91 67.54 67.40 66.82 65.35 62.84 62.25 61.73 61.08 62.13 62.48 63.22 63.84 63.50 62.88 61.70 61.04 60.64 60.08 59.08 58.55 57.97 56.97 55.43 55.75
35.06 41.87 41.43 40.39 38.74 34.17 42.46 33.57 41.49 44.53 46.25 48.01 49.23 49.11 50.18 52.55 52.68 54.06 54.75 53.48 58.75 61.26 64.79 66.91 67.13 67.34 67.22 67.05 64.44 63.67 60.33 59.59 60.06 61.09 61.71 62.06 63.72 63.50 62.90 62.38 61.73 60.51 59.52 58.91 58.75 59.25 57.45 55.95 54.37
37.16 43.46 41.54 41.17 37.93 37.10 37.89 33.48 39.92 43.74 44.05 46.42 48.59 50.31 50.19 51.45 52.64 52.91 52.72 55.93 60.45 63.71 65.25 67.34 67.14 67.02 65.86 64.95 63.88 62.34 60.38 59.88 59.97 60.94 61.49 61.28 61.57 62.40 63.15 61.76 60.84 60.11 59.40 58.87 59.47 58.97 58.07 57.15 55.79
41.31 40.69 40.23 39.68 35.32 29.49 36.62 35.46 35.26 40.06 43.57 45.47 48.07 49.66 51.38 51.43 51.53 52.13 57.52 61.49 62.15 64.10 66.39 66.62 66.11 64.71 63.98 63.19 61.79 60.60 60.60 59.92 60.13 59.73 60.14 59.81 59.72 60.36 61.36 61.69 60.22 59.76 59.54 59.21 59.25 59.30 58.67 57.85 57.21
36.88 31.27 26.26 24.52 26.68 28.70 38.21 35.31 38.48 42.13 45.47 47.02 47.95 49.68 50.94 51.64 54.75 58.50 59.62 61.16 62.93 64.68 65.38 64.57 64.38 62.62 62.59 61.32 61.10 60.61 60.56 59.80 59.95 59.76 59.67 59.16 59.19 59.49 59.89 60.03 59.43 59.34 59.93 60.26 59.74 59.12 58.51 58.43 58.33
33.05 31.72 26.10 21.38 23.78 29.02 38.60 32.33 36.94 45.22 47.81 48.96 49.93 51.06 54.49 55.97 57.48 58.25 59.80 61.69 63.43 64.17 63.96 62.76 62.34 62.12 61.42 61.47 60.31 60.29 60.52 60.25 59.87 59.56 59.59 59.49 59.23 59.30 59.86 59.93 59.65 60.07 61.03 61.46 60.90 59.37 59.21 59.30 58.84
34.28 30.59 34.76 30.35 34.05 28.83 33.79 38.18 42.47 45.63 46.28 47.51 48.16 53.49 54.82 55.65 57.46 58.98 60.76 62.16 62.72 62.19 62.36 61.49 61.55 60.95 60.96 61.22 60.65 60.33 60.89 60.63 59.90 59.27 59.61 59.33 59.21 59.87 59.45 60.42 60.57 61.09 61.97 61.84 61.35 59.94 59.56 59.52 58.72
37.38 39.40 29.68 29.05 23.97 22.63 31.36 34.09 35.72 42.39 44.22 46.88 46.75 52.50 54.54 56.45 57.81 59.12 60.75 61.76 61.70 61.73 61.42 60.81 61.07 60.34 61.01 60.80 60.93 61.03 60.88 60.76 60.48 60.22 59.74 59.73 58.64 59.81 60.37 60.16 60.80 61.41 61.31 61.11 60.35 59.40 60.29 60.15 60.33
33.36 32.33 32.58 32.31 30.69 27.58 25.55 31.35 41.89 42.58 45.55 47.75 46.84 54.43 55.76 56.86 57.43 59.13 60.64 60.97 61.24 61.83 61.16 60.32 60.66 60.50 60.87 60.42 60.20 60.68 60.44 60.49 60.07 59.19 59.58 59.46 58.65 59.60 59.66 60.51 61.15 61.19 60.32 60.00 59.40 60.48 61.17 61.02 60.43
36.88 34.12 33.65 26.88 26.98 31.98 31.17 33.75 45.81 45.04 46.88 48.23 53.58 56.02 56.36 57.18 57.84 59.63 60.36 60.73 61.14 60.95 60.64 59.76 60.12 60.26 60.71 60.24 59.73 59.69 60.03 59.33 59.36 59.54 59.49 59.08 58.40 59.42 59.68 60.30 61.88 61.86 61.19 60.20 59.97 60.88 61.51 59.68 59.75

GFSSGP_sfc_wetblb_027.txt.gz
Wetbulb
66.73 63.81 57.86 56.22 46.04 44.51 40.50 44.46 48.96 51.10 52.82 56.23 56.48 53.87 53.74 55.11 54.28 49.29 61.12 66.60 68.01 68.88 71.65 73.07 74.50 74.00 73.45 73.00 72.45 71.89 71.20 70.72 70.21 69.40 68.20 67.58 67.07 66.84 66.43 66.06 65.87 65.90 66.00 66.27 66.49 66.57 66.75 66.41 66.19
60.15 59.16 55.09 52.27 42.82 37.63 40.19 47.22 48.13 52.20 56.96 57.98 55.98 56.86 56.49 55.61 60.98 62.94 62.70 67.86 68.52 69.68 71.13 71.39 74.25 73.73 73.47 72.98 72.36 71.99 71.25 70.92 70.47 69.56 68.20 67.68 67.55 67.07 66.72 66.46 66.30 66.49 66.83 66.99 66.76 66.76 66.73 67.28 67.61
60.68 58.94 49.65 47.23 43.44 40.54 41.99 48.59 50.75 57.13 58.88 57.42 56.17 58.62 58.83 58.24 63.71 63.93 65.65 68.14 69.37 69.25 70.65 70.53 73.93 73.58 73.50 73.20 72.39 71.70 71.40 71.20 70.65 69.67 69.19 68.27 67.98 68.07 67.52 67.08 67.01 66.99 67.23 67.26 67.29 67.69 67.87 67.94 68.46
56.86 54.15 49.53 43.53 42.79 46.48 47.71 50.63 53.78 54.87 56.63 58.38 57.13 53.93 58.30 62.86 63.96 64.91 68.66 68.48 68.44 68.97 70.08 71.10 73.68 73.48 73.38 73.18 72.44 71.70 71.40 71.20 71.00 70.49 69.89 69.19 68.75 69.10 68.39 67.50 67.49 67.61 68.20 68.32 68.81 68.88 68.94 69.10 68.89
55.23 49.26 41.73 41.19 43.80 48.42 51.87 53.35 52.64 52.95 56.25 56.97 57.04 54.97 55.94 62.10 65.27 68.11 68.30 68.44 66.74 67.92 69.12 70.14 73.85 73.63 73.43 73.38 72.68 71.92 71.55 71.28 71.05 70.83 70.47 69.84 69.98 69.42 68.37 68.10 68.27 68.33 68.43 68.83 69.24 69.51 69.92 70.18 70.06
48.92 47.59 39.67 39.86 43.45 48.90 52.01 52.74 52.82 54.96 57.02 57.08 56.10 55.18 56.35 61.94 66.68 67.12 68.11 67.02 67.15 67.46 68.15 69.20 73.55 73.48 73.25 73.11 72.76 71.99 71.57 71.30 71.33 71.30 71.05 70.78 70.46 69.95 68.95 68.77 68.79 68.67 68.69 69.15 69.72 70.10 70.59 70.29 69.97
46.32 43.29 40.54 42.47 45.18 47.67 51.77 53.07 52.22 53.03 53.66 53.86 55.37 54.20 56.51 60.55 63.87 67.00 67.02 66.29 66.64 66.91 67.17 68.70 70.63 72.11 73.38 72.68 72.39 71.89 71.62 71.23 71.37 71.22 71.15 70.93 70.86 70.83 70.39 70.17 69.55 69.27 69.60 70.12 70.56 70.78 70.69 70.07 69.66
48.63 44.59 39.46 42.58 43.85 45.41 53.04 53.60 54.06 53.69 53.91 57.83 59.03 53.82 52.96 59.18 62.10 63.37 64.86 65.34 64.90 65.01 65.51 66.86 68.91 69.87 70.04 70.63 72.83 72.11 71.91 71.54 71.17 71.29 71.24 71.29 71.39 71.41 71.07 70.64 70.75 69.68 70.20 70.59 70.83 70.95 70.34 69.56 68.73
49.90 40.79 38.34 42.10 44.64 47.20 52.51 52.87 56.34 58.18 55.54 55.71 57.26 57.20 59.61 61.15 60.26 58.94 58.59 61.68 64.91 65.77 63.92 65.71 67.24 67.89 68.60 68.95 70.53 72.23 72.19 72.06 71.66 71.31 71.46 70.47 68.39 68.63 68.64 70.06 70.10 70.17 70.54 71.10 70.83 70.65 70.23 68.58 68.07
48.40 39.97 41.73 46.46 48.47 47.59 49.79 50.07 54.05 55.70 54.59 54.25 54.70 58.90 60.03 59.94 57.71 57.65 56.17 56.79 60.35 64.38 64.95 66.28 66.56 66.33 67.78 68.11 67.57 69.35 69.19 68.81 69.18 68.73 68.18 68.11 66.18 66.04 67.96 69.15 70.24 70.19 70.78 71.17 70.92 70.77 69.46 68.12 63.17
50.97 47.48 48.47 48.80 49.65 50.51 51.32 50.42 52.23 51.63 49.96 52.27 53.13 55.88 57.33 57.53 57.08 56.45 56.05 55.47 56.94 62.08 65.81 66.74 66.76 66.04 66.15 66.47 66.37 68.40 68.45 67.89 68.40 67.46 66.34 65.99 66.49 65.84 66.72 65.02 66.11 67.39 70.40 68.27 68.99 67.86 66.12 64.03 61.83
48.26 52.19 53.73 53.12 53.50 54.26 52.88 54.47 52.83 51.45 52.03 54.74 55.18 56.28 56.58 57.26 56.29 56.12 56.37 57.20 55.91 56.82 63.72 66.71 67.20 66.75 65.41 65.89 65.58 66.14 67.17 66.73 67.14 67.35 66.52 66.33 65.17 63.43 63.19 63.27 62.87 64.89 65.83 66.06 64.42 63.69 62.97 62.10 62.03
45.14 50.00 52.48 53.66 54.11 55.24 56.92 55.07 54.32 53.72 55.12 56.44 56.26 56.43 56.08 55.73 55.25 55.33 55.93 56.16 56.04 54.67 58.58 65.20 67.22 67.01 66.59 64.91 64.51 65.29 66.43 65.87 66.24 66.86 66.83 66.72 65.09 63.95 62.70 62.29 62.48 62.86 63.03 63.51 62.38 61.45 60.92 60.84 61.36
44.50 46.87 47.43 49.49 50.80 51.76 50.88 51.43 52.52 53.45 56.20 55.75 56.18 55.77 55.67 54.91 54.60 53.90 53.93 54.51 55.01 56.04 55.55 62.28 66.57 67.19 67.03 65.94 64.70 64.70 65.74 65.60 65.86 66.86 66.68 66.23 64.76 63.74 62.92 62.83 62.68 62.14 62.04 62.16 61.96 61.17 60.79 60.77 60.98
44.27 41.05 44.50 45.54 44.38 46.61 51.04 47.59 48.79 53.63 54.95 54.19 54.85 54.08 54.22 54.05 54.76 54.48 55.49 55.28 56.11 56.51 56.32 60.82 65.85 66.98 66.65 66.66 65.82 65.77 65.75 65.59 65.91 66.50 66.32 66.01 64.81 63.39 63.41 63.23 61.82 62.37 62.16 61.62 61.09 60.81 60.38 59.89 60.08
40.83 39.91 36.94 44.06 46.04 46.70 47.81 42.86 49.90 53.22 53.03 52.67 53.25 54.24 54.34 54.10 54.26 55.17 55.52 55.20 56.47 55.36 55.17 55.91 64.17 66.43 66.56 66.63 66.30 66.29 66.59 65.92 65.65 65.91 65.83 65.74 65.34 64.72 63.71 63.96 63.13 62.49 61.28 60.85 60.29 60.11 59.59 60.55 60.19
37.73 34.84 36.45 40.30 46.41 46.72 45.91 44.10 49.72 51.84 51.94 52.01 52.89 52.91 53.51 54.39 54.22 54.84 56.08 56.54 56.94 56.77 55.85 54.89 63.69 66.13 66.47 66.66 66.13 65.76 65.90 65.96 65.84 65.52 65.47 65.54 65.56 65.23 64.19 63.11 62.43 62.10 61.28 60.71 60.31 59.51 59.20 57.99 58.25
33.98 35.31 37.90 37.32 42.67 45.47 43.78 43.74 48.01 49.75 50.03 49.93 50.06 51.22 51.81 52.64 53.69 55.62 56.78 56.96 55.81 55.28 56.08 54.81 62.39 65.34 66.16 65.18 63.85 64.21 65.57 65.08 65.47 65.78 66.16 66.25 65.81 65.39 64.39 62.90 62.12 61.45 60.96 60.46 59.73 59.37 58.91 58.73 58.35
37.68 37.17 36.37 40.92 44.31 43.60 42.64 43.34 45.66 47.98 48.54 48.96 50.06 50.83 51.67 52.80 54.11 55.07 55.40 55.87 54.94 55.28 54.66 55.75 59.38 62.21 64.90 64.75 64.31 64.19 64.46 64.12 64.25 65.61 66.14 65.74 65.54 65.05 63.91 62.44 61.68 61.17 60.73 60.39 59.53 58.65 58.31 57.39 58.85
36.87 35.04 34.80 39.76 43.56 41.56 41.66 42.01 45.41 47.11 47.92 49.08 49.53 49.83 50.72 51.41 52.71 53.81 53.81 54.25 54.25 55.79 55.51 55.18 58.81 63.01 64.70 65.52 65.51 63.91 64.13 62.11 63.27 64.21 65.03 65.78 65.76 64.52 63.09 62.20 61.38 60.91 60.25 59.71 58.85 60.52 56.08 56.42 58.51
35.39 34.64 35.70 35.90 40.84 42.30 39.66 38.69 40.77 44.78 47.28 49.05 49.98 50.63 50.71 50.24 51.10 52.10 53.18 53.80 54.15 54.31 56.19 57.99 60.68 63.87 64.79 63.82 63.28 62.04 61.93 61.64 60.96 61.50 62.44 63.75 64.32 63.69 63.16 62.03 61.10 60.37 59.99 59.05 58.21 57.36 56.40 54.98 55.08
31.55 39.04 39.51 38.70 36.00 31.16 39.70 30.32 38.95 42.49 43.37 45.37 47.09 47.76 47.58 49.91 51.07 51.22 52.96 52.51 52.68 54.06 59.60 62.55 64.31 64.89 65.10 64.81 62.74 62.65 61.60 60.85 59.40 61.60 61.38 61.62 63.16 62.94 62.58 61.52 60.74 59.82 58.97 58.08 57.70 58.37 56.54 55.34 53.78
34.63 39.69 38.80 38.31 35.37 32.32 34.67 30.47 37.52 40.41 40.56 43.51 46.07 46.84 48.79 49.93 49.70 50.88 51.62 51.51 51.72 57.27 62.53 64.68 65.45 65.39 64.36 63.26 63.56 61.73 59.98 59.28 60.76 61.64 60.81 60.60 61.25 62.24 62.43 61.67 60.67 59.56 58.57 58.30 57.96 57.97 56.64 56.14 55.24
40.02 37.99 36.54 35.99 33.09 25.78 33.76 32.53 34.57 37.80 40.55 42.29 45.20 46.82 48.61 48.75 49.10 49.80 52.58 54.34 58.59 63.50 65.31 65.40 65.07 63.93 63.59 62.72 61.56 61.41 59.90 59.83 59.85 59.25 59.39 59.15 59.21 59.83 60.93 60.72 59.94 59.21 58.50 58.10 58.18 58.26 57.80 56.98 56.42
36.15 28.98 22.95 22.20 23.88 25.78 35.86 33.49 35.99 39.90 42.62 43.43 44.32 46.14 47.55 48.07 48.32 52.03 54.52 58.48 61.91 64.57 64.08 64.39 63.89 61.72 61.72 60.91 60.66 60.72 59.92 59.83 59.60 59.68 59.48 58.16 58.01 58.26 59.11 59.38 58.69 58.00 58.56 58.82 58.48 58.47 58.67 57.62 56.88
31.43 29.91 23.44 20.51 22.97 26.54 36.62 30.46 35.67 42.58 45.14 46.58 47.01 47.00 46.75 49.54 54.56 56.65 58.28 60.20 62.61 63.23 62.29 63.50 62.53 59.99 60.31 60.06 59.64 59.57 59.48 59.34 59.15 59.12 59.33 58.60 58.52 58.86 59.27 59.33 58.81 58.86 59.40 59.35 59.14 58.93 58.71 58.30 58.09
32.87 27.60 33.46 27.13 29.77 25.62 30.25 34.99 40.90 44.05 44.82 44.87 44.84 45.20 47.14 51.73 55.61 57.52 59.94 61.26 62.37 61.27 60.63 62.08 60.77 59.93 59.81 59.18 59.29 59.21 59.74 59.49 59.06 58.89 58.73 58.70 58.24 59.46 59.11 59.12 59.16 59.39 60.02 60.27 60.25 59.50 59.08 59.51 58.86
35.07 37.34 27.54 25.29 21.71 20.97 27.95 30.79 33.61 38.66 42.26 43.32 44.12 44.51 48.16 54.30 56.76 58.99 60.36 60.56 60.96 60.27 59.94 60.64 60.31 60.06 59.60 59.57 60.22 60.01 59.20 59.28 59.01 58.98 58.75 58.35 58.34 58.45 58.68 58.85 59.29 59.55 60.39 60.11 60.19 58.95 59.58 59.23 59.24
33.09 30.99 31.55 30.27 27.78 22.94 23.40 28.29 38.99 41.07 41.77 42.76 44.88 45.98 51.69 55.31 57.28 59.39 59.93 60.13 60.55 59.79 59.97 59.52 60.21 59.75 59.29 59.96 59.84 59.71 59.37 59.68 59.05 58.79 58.63 58.21 57.68 58.75 58.97 59.42 59.93 60.45 59.68 59.35 58.31 59.37 60.50 60.65 60.26
36.13 32.56 32.64 25.01 25.62 27.48 27.73 29.85 43.00 40.42 42.22 44.17 49.50 49.54 54.70 56.22 58.10 59.01 59.62 60.02 60.20 59.62 59.65 59.08 59.83 59.67 59.61 60.10 59.59 58.96 58.75 58.47 57.91 58.31 58.49 58.18 57.79 58.49 59.02 59.57 60.33 61.21 60.35 59.41 58.70 59.36 61.30 59.86 59.34

GFSSGP_sfc_wetblb_030.txt.gz
Wetbulb
66.94 63.84 56.41 54.90 44.12 41.81 38.92 42.65 46.41 48.03 51.17 53.75 54.01 55.21 55.63 55.11 53.83 49.54 60.68 66.43 66.96 67.31 71.87 73.60 74.63 74.56 73.86 73.46 73.06 72.64 71.95 71.45 70.79 70.28 69.75 69.07 68.92 67.64 66.95 67.45 66.15 66.05 65.78 66.10 66.60 66.55 66.55 66.36 66.15
60.10 58.41 54.29 51.15 41.07 38.18 39.20 45.67 47.03 49.14 54.95 58.17 55.15 55.35 54.97 54.21 58.74 60.53 60.78 66.61 67.30 68.42 71.21 72.05 74.58 74.39 73.86 73.46 72.84 72.35 72.10 71.30 70.82 70.47 69.61 69.07 68.94 68.13 67.11 66.74 66.47 66.62 66.78 66.76 66.79 66.55 66.50 66.89 67.20
58.36 57.29 49.31 46.84 41.74 38.05 40.21 47.54 48.89 52.98 55.91 56.87 54.67 56.87 57.06 56.45 61.82 62.21 64.26 67.64 68.46 69.08 70.44 70.80 74.63 74.26 73.99 73.49 72.84 72.23 71.71 71.38 71.02 70.57 69.94 69.53 69.36 69.14 68.42 67.13 67.11 67.40 67.54 67.49 67.19 67.27 67.29 67.47 67.78
56.73 53.27 48.73 42.04 42.17 46.07 44.99 49.07 52.15 52.50 53.80 56.59 56.50 53.02 57.40 61.97 63.16 64.35 67.38 68.42 67.98 68.56 69.84 71.26 74.48 73.99 73.74 73.64 73.14 72.28 71.95 71.60 71.23 70.85 70.55 70.02 69.29 69.17 68.68 67.59 67.41 67.64 67.99 67.86 68.25 68.47 68.32 68.24 68.43
54.00 48.26 40.72 39.12 42.68 47.19 48.86 51.43 50.58 50.26 51.88 54.99 56.46 53.49 55.55 60.51 65.59 67.24 67.23 68.56 67.21 67.89 69.01 70.04 74.16 73.91 73.86 73.84 73.37 72.67 72.20 71.68 71.36 71.21 70.50 69.90 70.16 69.48 68.60 68.07 67.89 68.17 68.76 68.91 69.06 69.30 69.48 69.44 69.74
48.75 46.95 37.92 38.00 42.37 47.72 49.19 51.00 51.26 51.26 54.82 56.55 55.24 55.21 55.85 59.81 64.80 65.77 67.11 66.13 66.70 67.56 68.33 68.95 73.64 73.66 73.56 73.66 73.17 72.55 71.95 71.81 71.54 71.29 70.96 70.66 70.45 69.83 69.20 68.54 68.37 68.72 68.91 69.13 69.39 69.48 69.78 70.77 70.01
44.92 41.48 39.77 41.17 44.16 46.84 49.28 51.63 50.77 51.07 51.08 52.83 55.04 53.33 55.04 58.91 63.63 66.48 66.11 65.66 65.66 67.00 67.32 67.67 70.91 72.47 73.84 73.36 72.89 72.22 71.75 71.56 71.26 70.92 70.85 70.77 70.75 70.40 70.01 69.77 69.41 69.06 69.46 69.70 69.98 70.13 70.58 70.38 69.74
47.37 43.48 38.15 41.95 43.28 44.41 50.54 51.68 52.03 52.53 53.45 56.90 57.62 52.59 51.94 58.66 62.52 65.96 65.38 64.57 63.76 64.81 66.27 66.11 68.83 70.53 70.51 70.94 73.24 72.62 72.07 71.63 71.25 71.18 71.26 71.01 70.92 70.74 70.62 70.07 70.35 69.83 69.84 70.04 70.48 70.53 70.67 70.42 69.40
48.57 39.99 37.44 41.73 43.92 45.89 50.10 48.12 53.76 56.23 55.10 55.03 56.69 56.06 58.16 59.73 59.83 61.08 61.17 62.32 64.27 64.95 63.62 64.85 67.11 68.51 69.27 69.72 70.58 72.47 72.23 72.10 71.64 71.59 71.59 70.23 68.76 69.11 68.95 69.94 70.01 70.31 70.45 70.70 70.86 70.91 71.12 69.84 68.57
46.35 38.90 40.54 45.83 47.82 47.61 49.08 48.26 50.27 51.32 50.80 52.47 54.58 57.15 58.52 58.66 57.26 57.56 58.70 60.51 61.90 63.69 64.06 63.49 65.35 66.90 67.86 68.72 68.39 69.51 69.05 69.14 69.40 69.28 69.08 68.66 67.77 67.66 68.63 69.35 69.96 70.26 70.65 71.04 71.44 71.05 70.37 69.13 66.05
49.65 44.78 45.52 45.93 48.54 49.50 49.36 49.46 52.25 50.86 48.79 51.20 51.51 53.48 55.28 55.98 55.85 55.67 56.21 58.17 59.05 62.51 64.82 64.26 64.45 66.10 66.50 66.89 66.81 68.02 68.66 67.90 68.50 68.21 67.81 67.97 67.66 67.99 68.46 66.87 67.93 68.06 69.91 68.84 70.35 70.08 68.78 66.37 64.87
46.36 51.27 51.73 50.31 51.33 51.20 49.23 52.76 51.91 52.62 51.44 54.15 53.68 54.41 54.03 54.78 54.12 54.53 54.93 55.96 55.50 55.83 61.88 65.17 65.26 65.14 65.23 66.37 65.69 66.04 67.33 66.94 67.29 67.72 67.07 66.80 66.46 65.62 66.33 65.41 65.10 65.58 67.03 68.06 67.84 67.12 66.78 65.47 64.49
48.41 49.11 52.38 54.54 54.76 53.85 55.64 53.84 53.79 54.39 57.05 56.62 56.88 56.71 55.03 53.94 54.47 54.77 55.40 54.95 55.17 54.70 56.11 60.40 65.10 65.40 65.21 64.93 64.98 64.84 65.80 66.10 66.07 66.96 66.69 66.74 65.99 64.72 64.53 64.70 63.71 63.52 65.19 66.15 65.86 65.01 64.18 63.58 63.09
43.37 46.74 48.25 50.40 50.23 51.49 50.91 51.03 50.68 52.27 55.44 55.47 55.73 54.82 54.81 54.34 54.56 54.39 53.18 53.21 53.73 54.56 54.97 56.26 64.39 65.97 66.07 64.56 64.67 64.42 64.36 65.18 64.99 65.96 66.65 66.42 65.65 64.48 63.92 63.42 62.99 62.97 63.88 64.46 64.74 63.90 62.92 62.55 62.64
43.45 40.00 42.23 43.54 45.19 46.97 50.48 47.01 48.02 53.38 54.58 53.74 53.99 54.36 54.55 55.16 55.00 54.05 55.21 53.91 54.51 55.31 55.59 55.22 60.65 65.62 65.87 65.43 64.76 64.00 64.09 64.95 64.39 65.28 66.27 66.36 65.19 63.96 63.62 63.21 62.49 63.51 63.61 63.78 63.19 63.11 62.81 62.19 62.07
39.55 38.94 36.86 43.78 43.59 45.53 48.15 42.57 49.59 52.72 52.78 52.53 53.46 53.53 53.89 53.72 53.24 53.87 54.34 54.34 55.12 54.86 54.80 55.09 61.43 64.76 65.74 65.96 65.79 64.42 64.07 64.76 64.73 65.10 66.20 66.29 65.04 64.22 63.51 62.72 63.11 63.81 63.24 63.19 62.76 62.53 61.97 61.84 61.55
36.40 35.07 33.87 38.29 44.10 45.27 45.28 43.47 48.10 51.55 50.62 49.86 50.56 51.01 52.27 52.94 53.29 53.73 54.85 55.06 55.16 54.91 54.86 54.49 56.36 62.83 65.20 65.83 66.02 65.41 65.19 64.91 64.95 65.60 65.89 65.76 65.40 65.00 63.75 63.39 63.46 63.63 62.90 62.32 62.34 61.82 62.08 61.23 61.16
31.83 32.17 36.00 35.96 40.97 44.38 42.08 43.05 47.06 49.22 49.75 49.72 49.21 50.30 50.74 50.64 51.41 53.25 54.24 55.11 54.77 54.92 54.46 54.36 54.69 59.37 64.14 65.06 64.09 63.65 64.45 64.95 64.94 64.85 65.29 65.44 65.56 65.04 64.09 63.94 63.58 63.33 62.68 62.17 61.91 61.61 61.16 61.30 61.00
36.10 34.65 34.10 37.88 42.15 40.85 41.07 42.11 44.34 46.08 46.14 47.05 48.14 49.32 50.36 51.40 53.40 52.95 53.83 54.65 54.71 54.33 54.33 54.24 55.13 60.82 64.50 63.87 62.77 62.45 63.75 64.11 64.42 65.35 65.53 65.46 65.69 65.13 64.64 64.17 63.53 62.86 62.57 62.37 61.68 61.34 61.04 60.09 61.17
35.07 32.47 32.35 37.63 41.30 39.66 38.96 38.48 41.61 43.84 45.18 46.61 47.66 48.07 48.34 49.12 49.72 52.02 52.75 53.36 52.76 54.16 54.21 53.95 54.80 60.50 64.38 64.94 63.47 63.81 63.80 64.05 64.21 65.20 65.74 66.02 65.69 65.47 64.66 63.82 62.91 62.65 61.90 61.82 61.09 61.82 59.20 59.49 60.08
33.44 32.56 33.04 34.16 39.12 40.92 38.19 37.31 40.03 42.90 44.24 45.88 47.14 48.07 49.17 49.45 49.13 51.22 52.60 51.63 52.58 52.37 54.07 54.89 55.01 60.26 62.83 63.65 62.83 62.00 62.03 62.06 61.91 63.32 63.85 65.06 65.76 65.53 64.76 63.48 62.86 62.03 62.38 61.44 60.79 60.33 59.34 58.10 58.19
29.34 37.25 37.39 37.41 34.46 29.91 37.36 27.93 37.15 40.96 42.14 43.61 44.96 46.38 47.66 48.16 49.90 50.53 50.68 51.20 52.70 52.78 53.05 55.13 58.46 62.18 63.55 63.87 62.43 62.66 61.01 60.45 61.33 62.72 63.37 63.79 64.64 64.26 63.38 63.24 62.60 62.10 62.10 60.99 60.53 60.02 59.02 58.08 56.68
32.86 38.35 36.11 35.62 32.78 30.19 32.74 28.71 35.79 38.58 38.28 40.54 43.77 45.54 46.57 47.14 47.38 48.02 49.68 50.87 51.25 51.07 53.71 59.66 62.34 63.70 63.56 63.32 63.37 62.57 60.71 59.91 61.80 62.29 62.14 61.97 62.67 63.28 63.23 62.59 62.72 62.14 60.92 60.58 60.08 59.85 58.89 58.69 57.78
38.34 35.81 34.85 33.30 30.89 24.18 31.13 30.58 32.51 35.87 38.84 39.79 43.19 44.39 45.86 46.17 46.85 47.68 48.99 51.91 54.72 60.90 63.07 64.08 63.35 62.33 62.87 63.05 61.67 61.37 60.27 60.80 60.82 60.69 60.91 61.15 60.83 61.67 62.39 63.03 62.10 61.48 60.58 60.40 60.12 60.26 59.86 59.11 58.66
33.79 28.45 21.19 20.61 21.35 23.22 33.38 30.64 34.51 37.95 41.02 41.59 42.38 44.09 45.59 46.30 46.45 46.65 48.10 56.84 60.77 62.86 63.30 64.02 62.92 61.42 61.24 61.34 61.11 61.07 60.82 61.04 60.93 60.74 60.15 59.78 59.27 59.66 60.73 61.56 60.73 60.29 60.54 60.50 60.49 60.00 60.00 59.79 58.99
29.58 28.37 22.11 19.59 20.85 23.48 34.53 27.87 33.25 41.10 43.58 44.28 44.51 44.27 44.46 44.84 44.99 48.92 55.95 59.56 62.49 62.75 63.66 62.64 61.66 60.34 60.81 61.13 60.23 60.53 60.99 61.12 61.14 60.60 60.55 60.10 59.78 60.26 60.72 60.89 60.99 60.71 60.61 60.76 60.64 60.65 60.78 60.58 60.01
31.42 26.05 31.80 25.47 27.11 23.07 27.69 32.40 38.50 42.51 42.27 43.04 43.15 44.35 44.01 44.32 45.36 54.77 59.31 61.77 62.36 62.60 61.70 61.27 60.42 59.70 59.95 59.72 60.00 59.92 60.16 60.16 59.79 59.50 59.95 59.77 60.08 60.49 60.83 61.16 60.56 60.26 60.88 61.21 61.02 60.59 60.50 60.22 60.36
33.54 35.35 25.21 23.29 20.08 19.85 25.35 28.34 30.94 36.93 38.87 41.92 42.50 42.85 44.17 46.85 54.94 58.27 59.67 60.91 60.10 59.87 60.06 59.78 59.96 59.59 59.30 59.77 60.18 59.79 59.78 60.19 59.93 60.07 59.61 59.86 60.10 60.92 60.07 60.10 60.68 61.20 61.78 61.73 61.75 61.17 61.28 60.59 60.52
31.92 29.17 29.79 26.87 25.04 22.06 22.11 26.14 36.38 38.86 39.90 40.51 41.83 45.92 49.88 50.15 57.00 58.77 59.51 60.59 59.09 59.63 59.55 59.52 59.34 59.28 59.44 60.07 59.88 59.73 59.51 59.87 59.76 59.67 59.63 59.75 59.51 59.53 60.14 60.43 61.21 61.58 61.79 61.17 60.79 60.92 61.03 60.81 60.14
32.73 30.55 31.29 24.19 24.52 25.77 24.27 26.20 38.94 39.23 40.37 41.25 44.04 52.13 53.24 54.87 57.57 58.98 59.53 59.91 59.06 58.75 59.37 59.18 59.17 59.36 59.54 60.05 59.83 59.55 59.46 59.19 58.95 59.14 59.35 59.00 59.10 60.09 60.59 61.16 61.51 61.99 61.54 60.99 60.40 60.24 61.20 60.55 59.35

GFSSGP_sfc_wetblb_033.txt.gz
Wetbulb
67.41 65.89 60.92 59.29 50.64 50.49 45.57 46.92 50.72 52.34 54.59 58.22 58.80 60.05 59.96 61.01 57.85 56.68 67.54 69.82 70.78 70.74 73.36 74.56 74.94 74.74 74.59 74.11 73.59 73.32 73.20 73.15 72.97 72.70 72.27 71.49 71.06 70.03 69.09 69.26 68.17 67.29 67.06 66.74 66.64 66.60 66.94 66.83 66.59
65.63 59.89 59.55 56.55 47.11 43.56 45.04 49.80 50.40 53.14 58.48 60.09 59.94 58.99 59.77 59.95 62.85 63.83 66.09 70.04 70.66 72.11 73.80 73.13 74.89 74.47 74.51 73.94 73.32 73.02 72.72 72.40 72.07 71.82 71.34 70.63 70.39 69.79 68.43 67.72 67.10 67.14 67.27 67.49 67.78 67.67 67.70 67.51 67.79
60.19 58.83 54.80 52.89 47.20 43.03 45.28 50.07 52.73 54.97 57.52 57.37 58.51 60.67 60.54 60.16 64.28 66.19 68.82 70.66 70.59 72.35 73.21 73.66 74.91 74.62 74.44 73.99 73.52 72.95 72.55 72.08 71.70 71.32 70.96 70.68 70.36 69.76 69.16 68.58 67.88 67.33 67.55 67.88 67.64 67.59 67.64 68.19 68.70
59.27 58.27 54.57 47.87 46.15 48.84 48.53 53.50 55.26 55.11 57.20 58.53 59.54 57.59 61.31 64.86 65.68 68.09 70.43 70.97 70.78 71.65 72.52 73.30 74.86 74.49 74.37 73.96 73.54 73.05 72.38 72.05 71.70 71.42 71.14 70.87 70.28 69.97 69.52 69.09 68.81 68.02 68.40 68.21 68.15 68.33 68.60 68.49 68.33
57.84 53.99 47.86 45.44 45.47 48.91 53.27 54.57 55.40 54.23 55.35 57.30 58.95 57.43 59.60 64.41 68.81 70.35 70.66 70.96 70.73 71.29 72.21 72.42 74.81 74.31 74.29 74.16 73.87 73.05 72.48 71.91 71.70 71.52 71.35 71.10 70.66 70.42 69.83 69.36 68.34 68.43 68.87 68.82 68.94 69.39 69.45 69.36 69.60
51.56 52.76 44.72 42.16 44.72 48.92 52.42 54.78 54.50 55.15 56.81 58.94 58.94 58.12 60.69 64.78 68.69 70.11 70.90 71.52 71.74 71.31 72.16 71.99 74.42 74.39 74.02 73.87 73.74 72.97 72.18 72.03 71.86 71.41 71.41 71.28 70.92 70.48 69.93 69.95 69.16 68.98 69.27 69.75 69.93 70.05 69.92 69.93 70.04
50.39 48.64 43.69 44.63 45.11 47.42 49.86 53.56 53.20 54.38 56.19 57.42 60.32 57.30 60.75 63.70 68.25 70.60 70.80 71.28 71.26 71.46 71.73 71.56 72.86 73.82 74.06 73.84 73.49 72.85 72.20 72.20 71.66 71.29 71.19 71.22 71.17 70.58 70.31 70.14 70.11 70.25 70.42 70.64 70.64 70.27 70.18 70.56 70.36
52.61 50.81 44.99 45.24 43.98 45.42 52.55 55.29 57.13 56.02 56.44 59.76 61.28 57.36 58.77 63.75 69.24 70.46 70.62 70.11 70.07 70.79 71.00 70.53 71.51 72.72 72.35 72.12 73.77 73.09 72.55 72.32 71.73 71.59 71.34 71.12 71.19 70.85 70.53 69.82 70.26 70.58 70.75 70.58 70.85 70.56 70.73 70.77 70.09
53.34 46.62 43.92 44.40 44.84 46.59 52.77 52.69 56.94 57.88 57.61 57.99 59.35 60.00 61.39 64.39 68.76 69.16 68.96 69.46 69.56 69.10 70.10 70.45 70.22 72.19 72.00 71.40 71.92 73.22 73.00 72.55 72.00 71.81 71.41 70.65 69.18 69.53 69.49 69.57 70.41 70.95 71.02 71.04 71.00 70.82 71.26 70.86 69.67
51.14 47.27 46.39 48.88 49.06 49.00 50.39 52.24 54.05 54.39 55.15 55.46 57.72 59.93 60.81 61.55 62.74 62.56 64.30 66.19 68.18 69.21 69.50 69.66 70.14 70.94 71.83 70.36 71.82 72.12 71.44 70.97 71.43 70.83 70.86 70.29 70.18 70.01 68.24 69.64 70.40 70.99 71.17 70.92 70.99 71.21 70.96 70.26 69.48
53.46 47.74 50.40 49.87 50.06 51.03 50.99 51.50 53.55 53.19 52.74 55.83 55.78 56.49 58.91 59.93 61.28 60.57 61.15 61.50 62.74 67.16 70.04 69.96 70.07 71.06 71.32 71.03 71.11 71.26 71.87 71.58 71.71 71.18 71.36 71.72 70.41 70.12 69.36 69.10 69.54 69.45 70.43 70.25 71.07 71.34 70.84 70.06 69.44
48.44 52.37 52.90 52.02 50.72 50.17 49.10 51.09 50.85 52.24 53.46 56.63 57.88 59.76 59.22 59.33 60.20 61.02 60.97 61.85 62.80 64.29 66.73 70.18 70.60 70.03 71.34 71.40 70.41 70.50 70.53 70.78 70.37 70.31 71.42 71.21 69.53 69.34 69.25 68.08 68.55 69.37 68.62 70.07 70.72 70.73 71.15 70.73 69.68
49.05 50.46 53.06 54.35 54.28 52.34 53.30 52.56 52.90 54.71 57.65 60.05 60.62 60.50 60.11 60.14 60.06 61.32 62.08 62.78 63.54 64.00 65.87 66.66 69.99 70.32 70.91 71.01 70.35 70.34 70.43 70.05 70.22 69.48 70.46 70.81 69.04 69.18 68.85 68.47 67.96 68.15 68.18 68.70 70.00 70.45 70.24 70.16 69.41
49.29 50.43 51.11 52.60 54.36 54.90 53.57 54.04 55.52 56.12 58.75 58.22 58.41 58.50 59.11 59.16 59.87 60.80 61.70 62.20 63.91 64.69 64.82 66.19 66.59 71.29 70.82 70.39 71.21 70.55 70.42 70.58 69.68 69.51 70.26 70.81 69.68 69.57 68.21 68.19 67.15 67.15 67.16 67.58 69.24 69.82 69.62 69.30 68.61
47.04 44.72 47.48 49.62 51.58 52.04 53.99 50.54 51.41 55.83 56.95 56.14 56.68 57.52 58.45 59.36 60.39 60.18 61.93 63.70 63.96 64.53 65.99 66.89 66.04 69.50 71.05 71.45 70.97 70.33 69.63 69.47 69.35 68.88 70.07 69.74 70.13 69.11 68.89 67.56 67.59 67.21 67.36 68.64 69.06 68.77 68.75 68.06 68.06
43.57 44.29 40.49 47.10 47.77 49.85 50.16 44.94 52.29 54.92 54.56 54.15 55.48 56.81 57.72 58.99 59.79 60.82 61.71 62.98 64.16 64.33 65.43 66.85 64.22 67.15 71.34 71.55 70.77 70.07 69.89 68.97 68.94 68.88 68.96 69.39 69.48 69.11 68.63 67.39 67.00 68.07 67.60 66.82 66.68 67.71 66.71 67.39 67.26
41.99 38.47 40.60 43.04 48.42 47.88 47.42 46.05 51.57 54.29 54.17 54.65 55.90 56.94 56.98 57.74 59.28 62.05 61.79 62.53 64.07 66.00 66.48 66.18 65.76 64.98 69.80 71.16 70.66 70.58 69.99 68.74 69.00 68.91 68.58 68.89 68.87 68.58 68.22 67.65 68.00 68.13 66.52 66.37 67.23 67.48 67.23 66.94 66.96
36.38 37.25 40.22 40.96 45.69 46.62 45.84 46.31 50.39 52.85 52.85 53.46 54.77 55.36 55.94 56.60 58.07 60.14 61.83 62.59 63.57 65.55 66.47 66.41 65.45 65.85 68.15 69.10 69.91 69.69 69.12 68.57 68.91 68.75 68.81 68.89 68.65 68.50 68.63 67.88 67.12 67.38 66.45 66.47 67.17 67.54 67.34 67.08 67.38
40.78 39.13 39.51 42.93 46.37 45.43 44.75 45.72 48.26 50.75 51.26 51.41 52.61 53.75 54.52 55.68 57.69 59.59 61.05 62.25 63.57 65.70 65.93 67.69 65.55 65.99 65.58 67.40 67.31 67.60 67.32 68.29 68.32 68.66 69.25 69.16 69.31 69.06 68.59 67.60 67.98 67.41 66.35 67.56 68.11 68.17 67.08 66.05 65.56
39.42 37.90 37.98 41.28 44.24 43.78 44.90 44.37 47.42 48.87 49.56 50.82 51.55 52.29 53.23 54.62 55.76 57.95 59.69 61.83 62.96 64.00 65.41 66.90 65.19 64.98 67.27 67.90 68.63 68.93 68.94 67.92 67.92 68.28 69.52 69.94 69.43 69.18 68.65 68.10 67.41 67.77 66.73 68.76 67.95 67.37 64.28 63.86 63.47
38.28 37.14 38.06 37.87 41.92 43.95 42.61 41.40 44.52 48.27 49.67 50.35 51.48 52.57 53.22 54.00 55.22 57.37 58.56 60.87 62.59 63.42 64.57 65.09 65.49 65.10 67.94 69.47 68.95 68.99 68.38 66.22 66.57 67.42 66.79 68.24 68.76 69.18 68.77 68.63 67.87 67.77 68.42 67.41 68.44 66.61 64.39 63.90 61.68
34.45 40.32 39.96 39.34 38.54 35.18 42.76 34.73 43.01 46.14 46.76 48.40 49.76 51.23 52.06 53.34 54.62 56.24 57.94 59.86 61.77 62.49 62.78 62.55 64.24 65.09 67.40 69.47 68.81 68.43 67.92 65.62 67.17 66.39 67.07 67.11 69.30 68.99 68.74 68.43 68.36 68.79 67.44 65.56 66.36 67.00 64.64 64.58 62.22
36.24 40.81 39.13 38.38 37.30 37.27 38.25 35.60 39.94 45.18 43.74 46.57 49.17 50.34 51.84 53.19 54.61 54.31 55.66 58.14 60.24 60.94 60.69 62.11 65.03 66.68 67.53 68.79 69.47 68.80 68.60 68.35 68.85 68.46 67.81 68.26 69.42 69.40 68.60 68.97 69.11 68.45 65.67 65.96 67.56 66.32 65.12 64.33 63.22
40.24 38.80 38.77 38.73 37.10 30.30 36.04 35.78 37.64 41.24 44.12 46.03 48.37 49.83 51.14 52.08 53.20 54.37 55.65 57.10 57.51 61.27 65.45 66.15 66.73 67.69 68.13 68.48 69.01 69.40 68.60 67.77 67.56 67.99 67.62 67.96 68.16 68.52 68.87 68.61 68.67 68.49 66.64 66.89 66.08 66.15 65.68 64.51 63.76
37.88 35.17 28.88 27.05 27.91 28.02 37.56 35.08 38.15 44.35 45.79 46.88 47.92 49.73 51.74 53.51 54.55 55.72 56.03 56.08 60.29 64.39 65.94 64.97 67.22 67.22 68.30 68.50 68.43 68.67 68.63 68.72 68.49 68.36 67.04 66.37 66.56 67.02 67.62 68.30 67.76 66.88 67.09 66.63 66.32 65.82 65.39 65.04 63.76
35.93 35.12 29.83 22.86 26.14 29.46 36.55 32.28 38.49 45.69 47.95 48.99 49.43 50.88 52.37 53.36 54.91 54.89 54.95 60.53 63.58 65.31 65.14 65.28 67.60 67.30 67.84 67.85 67.68 68.04 68.61 68.33 68.39 68.40 67.78 66.73 66.72 67.19 68.16 67.70 67.19 66.71 66.59 65.96 66.11 65.19 65.20 65.29 64.44
35.65 32.15 38.24 32.05 33.56 31.36 34.07 37.84 42.37 44.71 45.89 47.68 49.04 51.27 53.66 55.14 56.32 55.11 60.10 63.66 64.98 64.79 64.96 67.80 67.56 67.38 67.65 67.19 67.00 67.48 67.75 68.04 67.26 67.66 67.99 67.00 67.60 67.04 67.05 66.95 66.48 66.56 66.30 65.93 66.14 65.10 65.44 65.38 63.00
38.10 40.19 31.19 32.92 25.29 25.02 32.18 33.89 36.70 41.44 43.85 46.61 48.65 51.36 54.42 59.18 56.92 59.58 61.72 63.37 63.68 64.95 67.34 67.82 67.65 66.88 66.95 67.02 67.03 66.91 67.17 67.31 67.10 67.19 66.81 67.12 67.31 67.02 66.75 66.33 66.10 65.79 65.60 66.27 66.75 65.98 66.13 65.38 62.03
34.43 33.25 36.02 35.69 33.95 29.04 29.41 34.57 43.77 43.89 45.12 45.74 47.61 51.56 56.50 58.69 58.15 59.80 61.07 62.90 63.97 66.63 66.64 66.53 66.28 66.16 66.16 66.39 66.28 66.25 66.18 66.40 66.76 66.64 66.57 66.66 66.74 66.39 65.53 65.26 65.43 65.72 66.22 66.49 66.23 66.06 65.71 62.76 61.60
37.65 34.84 36.26 31.32 30.28 33.13 32.33 33.61 44.92 45.58 45.86 46.95 47.42 49.50 55.29 58.25 58.19 59.75 61.50 62.90 64.35 65.89 65.72 65.75 65.82 65.65 65.82 65.88 65.89 65.72 66.16 66.25 66.20 65.92 66.18 66.11 65.60 65.37 65.31 65.29 65.53 65.55 65.42 65.72 65.26 64.51 62.99 61.24 60.38